This demonstration page uses our WeatherBlox Daily Observations layout. Learn more.

Left ArrowRight Arrow

47.50024, -111.30081

Hourly Observations for October 4, 2019

Temp ( °F °C ) Dew Point ( °F °C ) Humidity (%) Winds ( mph kmh ) Pressure ( in mb ) Visibility ( mi km ) Precip ( " mm )
12:53 am 00:53 Clear 40 4.4 34 1.1 79 79 Calm 29.95 1014 10 16 0.00 0.00
1:53 am 01:53 Mostly Clear 38 3.3 31 -0.6 76 76 SW 6 9 29.94 1014 10 16 0.00 0.00
2:53 am 02:53 Cloudy 34 1.1 31 -0.6 89 89 WSW 8 13 29.95 1014 10 16 0.00 0.00
3:53 am 03:53 Mostly Cloudy 37 2.8 31 -0.6 79 79 SSW 3 6 29.93 1014 10 16 0.00 0.00
4:53 am 04:53 Mostly Cloudy 37 2.8 31 -0.6 79 79 SW 7 11 29.93 1014 10 16 0.00 0.00
5:53 am 05:53 Mostly Cloudy 35 1.7 30 -1.1 82 82 Calm 29.94 1014 10 16 0.00 0.00
6:53 am 06:53 Mostly Cloudy 34 1.1 29 -1.7 82 82 W 8 13 29.96 1014 10 16 0.00 0.00
7:53 am 07:53 Mostly Cloudy 31 -0.6 27 -2.8 85 85 SW 6 9 29.98 1015 10 16 0.00 0.00
8:53 am 08:53 Sunny 36 2.2 31 -0.6 82 82 SSW 3 6 29.96 1015 10 16 0.00 0.00
9:53 am 09:53 Sunny 41 5 32 0 70 70 W 7 11 29.97 1015 10 16 0.00 0.00
10:53 am 10:53 Sunny 44 6.7 34 1.1 68 68 WSW 7 11 29.98 1015 10 16 0.00 0.00
11:53 am 11:53 Sunny 48 8.9 35 1.7 61 61 W 3 6 29.97 1015 10 16 0.00 0.00
12:53 pm 12:53 Sunny 51 10.6 36 2.2 56 56 WSW 7 11 29.95 1014 10 16 0.00 0.00
1:53 pm 13:53 Sunny 53 11.7 31 -0.6 43 43 Calm 29.95 1014 10 16 0.00 0.00
2:53 pm 14:53 Sunny 54 12.2 32 0 43 43 VRB 3 6 29.96 1015 10 16 0.00 0.00
3:53 pm 15:53 Mostly Cloudy 56 13.3 31 -0.6 39 39 NW 3 6 29.96 1014 10 16 0.00 0.00
4:53 pm 16:53 Mostly Sunny 54 12.2 33 0.6 45 45 NE 7 11 29.97 1015 10 16 0.00 0.00
5:53 pm 17:53 Partly Cloudy 50 10 30 -1.1 46 46 N 7 11 30.02 1017 10 16 0.00 0.00
6:53 pm 18:53 Cloudy 48 8.9 31 -0.6 52 52 Calm 30.05 1018 10 16 0.00 0.00
7:53 pm 19:53 Cloudy 46 7.8 32 0 58 58 S 6 9 30.08 1019 10 16 0.00 0.00
8:53 pm 20:53 Mostly Cloudy 42 5.6 32 0 68 68 WSW 9 15 30.09 1019 10 16 0.00 0.00
9:53 pm 21:53 Clear 37 2.8 28 -2.2 70 70 WSW 6 9 30.11 1020 10 16 0.00 0.00
10:53 pm 22:53 Clear 39 3.9 29 -1.7 67 67 SW 12 19 30.10 1019 10 16 0.00 0.00
11:53 pm 23:53 Clear 39 3.9 27 -2.8 62 62 SW 14 22 30.11 1020 10 16 0.00 0.00

Powered by AerisWeather